Location: *
(38.3914°N, 75.0697°W)
Time: 15:26:13
(UTC+00:00)

STARLINK-1022 - Pass Details

Date: 17 February 2020
Orbit: 548 x 551 km, 53.0° (Epoch: 28 March)

Event Time Altitude Azimuth Distance (km) Brightness Sun altitude
Exits shadow 09:10:53 24° 83° (E) 1,156 5.8 -31.6°
Drops below altitude 10° 09:12:53 10° 102° (ESE) 1,816 7.0 -31.2°
Enters shadow 10:14:33 -60° 314° (NW) 11,721 10.3 -19.1°
